Find Starlink 32719

NORAD ID: 62448 Int'l Des: 2024-251 Owner: SPXS Country: US Constellation: starlink operational
LEOCIRCULAR

Live-Position

3D-Globus wird geladen...

Über Starlink 32719

Beschreibung wird geladen...

Nächste Überflüge

Passes for default location (London). Set your location on the main map for personalized predictions.

Höhenverlauf

Loading altitude history...

Zweizeiliger Elementsatz

1 62448U 24251S 26122.32607846 .00019615 00000-0 67266-3 0 9999
2 62448 53.1575 86.4977 0001054 82.4884 277.6236 15.30198918 75984
Epoch: 2. Mai 2026 • Age: 15 hours

Aktueller Status

Höhe 492.1 km
Geschwindigkeit 7.62 km/s
Subsatellitenpunkt -47.71°S, 179.51°E
Startdatum 29. Dez. 2024
Alter 1.3 years
Typ internet

Technische Details

Klassifizierung Payload
Masse 730.00 kg
Trockenmasse 700.00 kg
Gesamtmasse 730.00 kg
Länge 0.30 m
Durchmesser 4.10 m
Spannweite 29.00 m
Form Box + pan
Hersteller SPXS
Bus-Typ Starlink V2M
Phasenstatus In Orbit
Besitzer/Staat SPXS/US

Most Searched